Location: Felsheim
(48.7267°N, 10.7386°E)
Time: 23:33:10
(UTC+00:00)

CZ-2C R/B - Pass Details

Date: 09 April 2020
Orbit: 705 x 907 km, 98.1° (Epoch: 23 May)

Event Time Altitude Azimuth Distance (km) Brightness Sun altitude
Rises 18:32:06 0° 158° (SSE) 3,149 5.8 -5.9°
Reaches altitude 10° 18:34:24 10° 157° (SSE) 2,211 5.0 -6.2°
Maximum altitude 18:39:12 73° 73° (ENE) 748 2.8 -7.0°
Drops below altitude 10° 18:43:57 10° 350° (N) 2,187 5.8 -7.7°
Sets 18:46:12 0° 348° (NNW) 3,112 6.7 -8.0°
